• în România
  • Lista ţărilor
  • Pe 7 zile
  • Temperatura apei
  • Hartă satelitară
  • Meteo pe hartă
  • Widget-uri
  • user-avatar
    Intrare

    Meteo pe oră la Bambari

    Astăzi, 18 Octombrie, Miercuri

    Timp Temperatura Precipitaţii Vânt Presiune Umiditate
    00:00 +24°C° 0 mm 0 m/s 721 mmHg 75%
    01:00 +25°C° 0 mm 1 m/s 721 mmHg 77%
    02:00 +23°C° 0 mm 0 m/s 721 mmHg 79%
    03:00 +23°C° 0 mm 0 m/s 721 mmHg 80%
    04:00 +22°C° 0 mm 0 m/s 721 mmHg 81%
    05:00 +23°C° 0 mm 0 m/s 721 mmHg 80%
    06:00 +24°C° 0 mm 0 m/s 722 mmHg 79%
    07:00 +25°C° 0 mm 0 m/s 722 mmHg 77%
    08:00 +28°C° 0 mm 0 m/s 722 mmHg 70%
    09:00 +30°C° 0 mm 0 m/s 722 mmHg 62%
    10:00 +35°C° 0 mm 1 m/s 722 mmHg 54%
    11:00 +34°C° 0 mm 0 m/s 721 mmHg 49%
    12:00 +34°C° 0 mm 0 m/s 721 mmHg 45%
    13:00 +35°C° 0 mm 0 m/s 720 mmHg 40%
    14:00 +34°C° 0 mm 0 m/s 720 mmHg 44%
    15:00 +35°C° 0 mm 1 m/s 719 mmHg 47%
    16:00 +34°C° 0 mm 1 m/s 719 mmHg 51%
    17:00 +30°C° 0 mm 0 m/s 719 mmHg 54%
    18:00 +28°C° 0 mm 0 m/s 719 mmHg 57%
    19:00 +26°C° 0 mm 0 m/s 720 mmHg 59%
    20:00 +26°C° 0 mm 0 m/s 720 mmHg 60%
    21:00 +25°C° 0 mm 0 m/s 720 mmHg 61%
    22:00 +25°C° 0 mm 0 m/s 721 mmHg 62%
    23:00 +24°C° 0 mm 0 m/s 721 mmHg 64%

    Mâine, 19 Octombrie, Joi

    Timp Temperatura Precipitaţii Vânt Presiune Umiditate
    00:00 +24°C° 0 mm 0 m/s 720 mmHg 66%
    01:00 +23°C° 0 mm 0 m/s 720 mmHg 68%
    02:00 +23°C° 0 mm 0 m/s 720 mmHg 72%
    03:00 +22°C° 0 mm 0 m/s 720 mmHg 75%
    04:00 +22°C° 0 mm 0 m/s 720 mmHg 78%
    05:00 +25°C° 0 mm 1 m/s 721 mmHg 78%
    06:00 +26°C° 0 mm 1 m/s 721 mmHg 77%
    07:00 +27°C° 0 mm 1 m/s 722 mmHg 77%
    08:00 +29°C° 0 mm 1 m/s 722 mmHg 69%
    09:00 +31°C° 0 mm 1 m/s 723 mmHg 61%
    10:00 +34°C° 0 mm 1 m/s 723 mmHg 54%
    11:00 +35°C° 0 mm 1 m/s 722 mmHg 49%
    12:00 +37°C° 0 mm 1 m/s 721 mmHg 45%
    13:00 +36°C° 0 mm 0 m/s 720 mmHg 40%
    14:00 +35°C° 0 mm 0 m/s 720 mmHg 43%
    15:00 +34°C° 0 mm 0 m/s 720 mmHg 46%
    16:00 +33°C° 0 mm 0 m/s 719 mmHg 48%
    17:00 +31°C° 0 mm 0 m/s 720 mmHg 52%
    18:00 +29°C° 0 mm 0 m/s 720 mmHg 56%
    19:00 +26°C° 0 mm 0 m/s 720 mmHg 59%
    20:00 +26°C° 0 mm 0 m/s 721 mmHg 61%
    21:00 +25°C° 0 mm 0 m/s 721 mmHg 63%
    22:00 +27°C° 0 mm 1 m/s 721 mmHg 65%
    23:00 +26°C° 0 mm 1 m/s 721 mmHg 69%

    Poimâine, 20 Octombrie, Vineri

    Timp Temperatura Precipitaţii Vânt Presiune Umiditate
    00:00 +26°C° 0 mm 1 m/s 721 mmHg 73%
    01:00 +25°C° 0 mm 1 m/s 720 mmHg 78%
    02:00 +25°C° 0 mm 1 m/s 720 mmHg 81%
    03:00 +24°C° 0 mm 1 m/s 720 mmHg 84%
    04:00 +24°C° 0 mm 1 m/s 720 mmHg 88%
    05:00 +25°C° 0 mm 1 m/s 721 mmHg 85%
    06:00 +26°C° 0 mm 1 m/s 722 mmHg 82%
    07:00 +25°C° 0 mm 0 m/s 722 mmHg 79%
    08:00 +29°C° 0 mm 1 m/s 723 mmHg 70%
    09:00 +32°C° 0 mm 1 m/s 723 mmHg 62%
    10:00 +34°C° 0 mm 1 m/s 723 mmHg 54%
    11:00 +35°C° 0 mm 1 m/s 722 mmHg 51%
    12:00 +35°C° 0 mm 1 m/s 722 mmHg 48%
    13:00 +36°C° 0 mm 1 m/s 721 mmHg 45%
    14:00 +35°C° 0 mm 1 m/s 720 mmHg 51%
    15:00 +33°C° 0 mm 1 m/s 720 mmHg 57%
    16:00 +32°C° 0 mm 1 m/s 719 mmHg 64%
    17:00 +31°C° 0 mm 1 m/s 720 mmHg 67%
    18:00 +30°C° 0 mm 1 m/s 720 mmHg 69%
    19:00 +28°C° 0 mm 1 m/s 721 mmHg 72%
    20:00 +28°C° 0 mm 1 m/s 721 mmHg 74%
    21:00 +27°C° 0 mm 1 m/s 721 mmHg 76%
    22:00 +26°C° 0 mm 1 m/s 722 mmHg 78%
    23:00 +26°C° 0 mm 1 m/s 721 mmHg 79%

    21 Octombrie, Sâmbătă

    Timp Temperatura Precipitaţii Vânt Presiune Umiditate
    00:00 +24°C° 0 mm 0 m/s 721 mmHg 79%
    01:00 +23°C° 0 mm 0 m/s 720 mmHg 80%
    02:00 +23°C° 0 mm 0 m/s 720 mmHg 81%
    03:00 +25°C° 0 mm 1 m/s 720 mmHg 82%
    04:00 +24°C° 0 mm 1 m/s 720 mmHg 83%
    05:00 +25°C° 0 mm 1 m/s 721 mmHg 81%
    06:00 +26°C° 0 mm 1 m/s 721 mmHg 79%
    07:00 +27°C° 0 mm 1 m/s 722 mmHg 77%
    08:00 +30°C° 0 mm 1 m/s 722 mmHg 69%
    09:00 +32°C° 0 mm 1 m/s 722 mmHg 60%
    10:00 +34°C° 0 mm 1 m/s 722 mmHg 52%
    11:00 +36°C° 0 mm 1 m/s 722 mmHg 47%
    12:00 +39°C° 0 mm 1 m/s 721 mmHg 42%
    13:00 +37°C° 0 mm 0 m/s 720 mmHg 37%
    14:00 +36°C° 0 mm 0 m/s 720 mmHg 39%
    15:00 +37°C° 0 mm 1 m/s 720 mmHg 41%
    16:00 +36°C° 0 mm 1 m/s 719 mmHg 44%
    17:00 +33°C° 0 mm 1 m/s 720 mmHg 47%
    18:00 +31°C° 0 mm 1 m/s 720 mmHg 50%
    19:00 +27°C° 0 mm 0 m/s 720 mmHg 54%
    20:00 +29°C° 0 mm 1 m/s 720 mmHg 55%
    21:00 +28°C° 0 mm 1 m/s 721 mmHg 56%
    22:00 +28°C° 0 mm 1 m/s 721 mmHg 57%
    23:00 +27°C° 0 mm 1 m/s 721 mmHg 63%

    22 Octombrie, Duminică

    Timp Temperatura Precipitaţii Vânt Presiune Umiditate
    00:00 +27°C° 0 mm 1 m/s 721 mmHg 69%
    01:00 +26°C° 0 mm 1 m/s 721 mmHg 74%
    02:00 +26°C° 0 mm 1 m/s 721 mmHg 78%
    03:00 +26°C° 0 mm 1 m/s 721 mmHg 82%
    04:00 +25°C° 0 mm 1 m/s 721 mmHg 85%
    05:00 +26°C° 0 mm 1 m/s 721 mmHg 83%
    06:00 +26°C° 0 mm 1 m/s 721 mmHg 81%
    07:00 +27°C° 0 mm 1 m/s 722 mmHg 79%
    08:00 +29°C° 0 mm 1 m/s 722 mmHg 73%
    09:00 +31°C° 0 mm 2 m/s 722 mmHg 66%
    10:00 +32°C° 0 mm 2 m/s 722 mmHg 59%
    11:00 +34°C° 0 mm 2 m/s 721 mmHg 54%
    12:00 +35°C° 0 mm 1 m/s 721 mmHg 50%
    13:00 +36°C° 0 mm 1 m/s 720 mmHg 45%
    14:00 +35°C° 0 mm 1 m/s 719 mmHg 48%
    15:00 +34°C° 0 mm 1 m/s 719 mmHg 51%
    16:00 +34°C° 0 mm 1 m/s 719 mmHg 55%
    17:00 +31°C° 0,7 mm 2 m/s 720 mmHg 63%
    18:00 +29°C° 0,7 mm 2 m/s 720 mmHg 71%
    19:00 +27°C° 0,7 mm 2 m/s 720 mmHg 80%
    20:00 +26°C° 2,9 mm 2 m/s 721 mmHg 84%
    21:00 +26°C° 2,9 mm 2 m/s 721 mmHg 89%
    22:00 +25°C° 2,9 mm 2 m/s 721 mmHg 93%
    23:00 +25°C° 0,4 mm 2 m/s 721 mmHg 93%

    23 Octombrie, Luni

    Timp Temperatura Precipitaţii Vânt Presiune Umiditate
    00:00 +25°C° 0,4 mm 2 m/s 720 mmHg 93%
    01:00 +25°C° 0,4 mm 2 m/s 720 mmHg 93%
    02:00 +24°C° 0,2 mm 1 m/s 720 mmHg 93%
    03:00 +24°C° 0,2 mm 1 m/s 720 mmHg 94%
    04:00 +24°C° 0,2 mm 1 m/s 720 mmHg 94%
    05:00 +23°C° 0,5 mm 0 m/s 721 mmHg 92%
    06:00 +23°C° 0,5 mm 0 m/s 721 mmHg 90%
    07:00 +24°C° 0,5 mm 0 m/s 722 mmHg 88%
    08:00 +29°C° 0 mm 1 m/s 722 mmHg 77%
    09:00 +31°C° 0 mm 1 m/s 722 mmHg 65%
    10:00 +34°C° 0 mm 1 m/s 722 mmHg 54%
    11:00 +35°C° 0 mm 1 m/s 721 mmHg 51%
    12:00 +36°C° 0 mm 1 m/s 720 mmHg 49%
    13:00 +36°C° 0 mm 1 m/s 720 mmHg 46%
    14:00 +35°C° 0,1 mm 1 m/s 719 mmHg 53%
    15:00 +34°C° 0,1 mm 1 m/s 719 mmHg 59%
    16:00 +32°C° 0,1 mm 1 m/s 719 mmHg 66%
    17:00 +31°C° 0,2 mm 1 m/s 719 mmHg 69%
    18:00 +29°C° 0,2 mm 1 m/s 720 mmHg 73%
    19:00 +28°C° 0,2 mm 1 m/s 720 mmHg 77%
    20:00 +27°C° 1,1 mm 1 m/s 720 mmHg 82%
    21:00 +26°C° 1,1 mm 1 m/s 720 mmHg 87%
    22:00 +25°C° 1,1 mm 1 m/s 720 mmHg 93%
    23:00 +25°C° 0,7 mm 1 m/s 720 mmHg 93%
    Arată mai mult